| time (UTC) | temp C | wind direction | speed KPH | gust KPH | rain 1hr cm | rain 24hr cm | rain mn cm | humidity % | barometer mb |
| 20260504004502 | 12 | 260 | 16.1 | 22.5 | 0.00 | 0.00 | 0.00 | 55 | 1012.3 |
| 20260504003102 | 13 | 257 | 14.5 | 19.3 | 0.00 | 0.00 | 0.00 | 56 | 1012.1 |
| 20260504001602 | 13 | 240 | 14.5 | 20.9 | 0.00 | 0.00 | 0.00 | 56 | 1012.0 |
| 20260504000101 | 13 | 271 | 9.7 | 17.7 | 0.00 | 0.00 | 0.00 | 55 | 1011.8 |
| 20260503234538 | 14 | 255 | 8.0 | 16.1 | 0.00 | 0.00 | 0.00 | 52 | 1011.7 |
| 20260503233038 | 14 | 258 | 6.4 | 17.7 | 0.00 | 0.00 | 0.00 | 49 | 1011.5 |
| 20260503231536 | 15 | 286 | 8.0 | 25.7 | 0.00 | 0.00 | 0.00 | 46 | 1011.6 |
| 20260503230017 | 15 | 278 | 12.9 | 29.0 | 0.00 | 0.00 | 0.00 | 47 | 1011.5 |
| 20260503224512 | 15 | 276 | 19.3 | 30.6 | 0.00 | 0.00 | 0.00 | 47 | 1011.5 |
| 20260503223010 | 15 | 347 | 19.3 | 32.2 | 0.00 | 0.00 | 0.00 | 43 | 1011.2 |
| 20260503221506 | 15 | 295 | 16.1 | 38.6 | 0.00 | 0.00 | 0.00 | 50 | 1011.3 |
| 20260503220108 | 15 | 278 | 16.1 | 38.6 | 0.00 | 0.00 | 0.00 | 47 | 1011.2 |
| 20260503214549 | 14 | 270 | 20.9 | 38.6 | 0.00 | 0.00 | 0.00 | 45 | 1011.1 |
| 20260503213045 | 14 | 274 | 20.9 | 45.1 | 0.00 | 0.00 | 0.00 | 49 | 1011.1 |
| 20260503211558 | 14 | 319 | 17.7 | 35.4 | 0.00 | 0.00 | 0.00 | 45 | 1011.0 |
| 20260503210022 | 14 | 334 | 17.7 | 35.4 | 0.00 | 0.00 | 0.00 | 48 | 1010.9 |
| 20260503204520 | 14 | 285 | 20.9 | 40.2 | 0.00 | 0.00 | 0.00 | 46 | 1010.8 |
| 20260503203019 | 13 | 304 | 20.9 | 38.6 | 0.00 | 0.00 | 0.00 | 45 | 1010.8 |
| 20260503201517 | 13 | 293 | 20.9 | 35.4 | 0.00 | 0.00 | 0.00 | 47 | 1010.8 |
| 20260503200119 | 13 | 283 | 20.9 | 40.2 | 0.00 | 0.00 | 0.00 | 46 | 1010.9 |
| 20260503194604 | 13 | 357 | 20.9 | 45.1 | 0.00 | 0.00 | 0.00 | 48 | 1011.1 |
| 20260503193102 | 13 | 316 | 19.3 | 38.6 | 0.00 | 0.00 | 0.00 | 49 | 1011.1 |
| 20260503191555 | 13 | 295 | 22.5 | 37.0 | 0.00 | 0.00 | 0.00 | 51 | 1011.4 |
| 20260503190049 | 12 | 309 | 20.9 | 40.2 | 0.00 | 0.00 | 0.00 | 56 | 1011.5 |
| 20260503184537 | 12 | 248 | 16.1 | 35.4 | 0.00 | 0.00 | 0.00 | 51 | 1011.5 |
| 20260503183023 | 12 | 233 | 24.1 | 40.2 | 0.00 | 0.00 | 0.00 | 52 | 1011.6 |
| 20260503181520 | 12 | 311 | 20.9 | 40.2 | 0.00 | 0.00 | 0.00 | 53 | 1011.7 |
| 20260503180123 | 11 | 311 | 22.5 | 41.8 | 0.00 | 0.00 | 0.00 | 52 | 1011.8 |
| 20260503174601 | 11 | 277 | 22.5 | 41.8 | 0.00 | 0.00 | 0.00 | 54 | 1011.8 |
| 20260503173109 | 11 | 323 | 27.4 | 40.2 | 0.00 | 0.00 | 0.00 | 57 | 1012.0 |
| 20260503171556 | 11 | 332 | 17.7 | 43.5 | 0.00 | 0.00 | 0.00 | 52 | 1011.8 |
| 20260503150107 | 10 | 313 | 17.7 | 33.8 | 0.00 | 0.00 | 0.00 | 61 | 1012.2 |
| 20260503110106 | -17 | 0.0 | 0.0 | 0.00 | 0.00 | 0.00 | 1010.7 | ||
| 20260503081602 | 10 | 345 | 6.4 | 17.7 | 0.00 | 0.00 | 0.00 | 69 | 1008.9 |
| 20260503080107 | 10 | 303 | 6.4 | 20.9 | 0.00 | 0.00 | 0.00 | 69 | 1009.0 |
| 20260503071544 | 10 | 1 | 6.4 | 19.3 | 0.00 | 0.00 | 0.00 | 65 | 1009.1 |
| 20260503060118 | 11 | 356 | 16.1 | 25.7 | 0.00 | 0.00 | 0.00 | 62 | 1009.1 |
| 20260503054605 | 11 | 288 | 11.3 | 25.7 | 0.00 | 0.00 | 0.00 | 65 | 1009.2 |
| 20260503053057 | 11 | 302 | 9.7 | 24.1 | 0.00 | 0.00 | 0.00 | 67 | 1009.5 |
| 20260503051551 | 11 | 326 | 12.9 | 27.4 | 0.00 | 0.00 | 0.00 | 64 | 1009.4 |
| 20260503050048 | 11 | 322 | 9.7 | 19.3 | 0.00 | 0.00 | 0.00 | 68 | 1009.5 |
| 20260503044529 | 11 | 330 | 8.0 | 24.1 | 0.00 | 0.00 | 0.00 | 69 | 1009.7 |
| 20260503043027 | 11 | 342 | 14.5 | 24.1 | 0.00 | 0.00 | 0.00 | 68 | 1009.9 |
| 20260503041524 | 11 | 318 | 14.5 | 20.9 | 0.00 | 0.00 | 0.00 | 67 | 1010.1 |
| 20260503040006 | 11 | 13 | 9.7 | 25.7 | 0.00 | 0.00 | 0.00 | 70 | 1010.2 |
| 20260503034504 | 11 | 316 | 12.9 | 20.9 | 0.00 | 0.00 | 0.00 | 75 | 1010.0 |
| 20260503033003 | 11 | 304 | 8.0 | 17.7 | 0.00 | 0.00 | 0.00 | 80 | 1010.0 |
| 20260503031604 | 11 | 278 | 4.8 | 16.1 | 0.00 | 0.00 | 0.00 | 81 | 1010.2 |
| 20260503030127 | 11 | 302 | 6.4 | 14.5 | 0.00 | 0.00 | 0.00 | 81 | 1010.1 |
| 20260503024543 | 10 | 278 | 3.2 | 12.9 | 0.00 | 0.00 | 0.00 | 89 | 1010.0 |
| 20260503023037 | 10 | 280 | 4.8 | 11.3 | 0.00 | 0.00 | 0.00 | 89 | 1010.0 |
| 20260503021536 | 11 | 263 | 3.2 | 14.5 | 0.00 | 0.00 | 0.00 | 90 | 1010.3 |
| 20260503020010 | 11 | 269 | 6.4 | 12.9 | 0.00 | 0.00 | 0.00 | 91 | 1010.4 |
| 20260503014507 | 11 | 248 | 12.9 | 19.3 | 0.00 | 0.00 | 0.00 | 90 | 1010.1 |
| 20260503013004 | 11 | 251 | 11.3 | 17.7 | 0.00 | 0.00 | 0.00 | 90 | 1010.4 |
| 20260503011506 | 11 | 233 | 12.9 | 17.7 | 0.00 | 0.00 | 0.00 | 88 | 1010.3 |
| 20260503010110 | 11 | 242 | 11.3 | 16.1 | 0.00 | 0.00 | 0.00 | 86 | 1010.1 |